Regional Weather Roundup
Issued by NWS Wakefield, VA

Home | Current Version | Previous Version | Graphics & Text | Print | Product List | Glossary On
Versions: 1 2 3 4 5 6 7 8 9 10 11 12 13 14 15 16 17 18 19 20 21 22 23 24 25 26 27 28 29 30 31 32 33 34 35 36 37 38 39 40 41 42 43 44 45 46 47 48 49 50
000
ASUS41 KAKQ 231215
RWRAKQ

REGIONAL WEATHER ROUNDUP
NATIONAL WEATHER SERVICE WAKEFIELD VA
700 AM EST MON JAN 23 2017

Note: "fair" indicates few or no clouds below 12,000 feet with no
significant weather and/or obstructions to visibility. * = Denotes
station may not report precipitation (e.g., rain,snow,etc.),
thunder or fog.

VAZ042-051-052>054-056-231300-
NORTHERN VIRGINIA

CITY           SKY/WX    TMP DP  RH WIND       PRES   REMARKS
WASH NATIONAL  LGT RAIN  47  45  93 NE22G33   29.50F FOG
DULLES         CLOUDY    45  42  89 E24G35    29.49S FOG
FORT BELVOIR   DRIZZLE   46  45  93 VRB5      29.49R
QUANTICO       LGT RAIN  48  47  96 E23G29    29.47R FOG
FREDERICKSBRG* LGT RAIN  49  49 100 NE16G30   29.41F
STAFFORD*      LGT RAIN  47  47 100 E18G28    29.49R
WARRENTON      LGT RAIN  48  44  87 NE10G26   29.45S
CULPEPER*      RAIN      48  47  97 NE10G21   29.45F
MANASSAS*      LGT RAIN N/A N/A N/A MISG      29.49
LEESBURG*      CLOUDY    46  46 100 NE12G33   29.53S FOG
WINCHESTER     DRIZZLE   43  43 100 NE9       29.52R
FRONT ROYAL*   CLOUDY    45  45 100 NE6       29.49R
LURAY*         RAIN      45  45 100 NE12      29.45F
$$

VAZ048-049-060>072-079>083-231300-
CENTRAL AND SOUTH CENTRAL VIRGINIA

CITY           SKY/WX    TMP DP  RH WIND       PRES   REMARKS
RICHMOND       LGT RAIN  51  51 100 NE23G32   29.29F FOG
CHESTERFIELD*  CLOUDY    52  36  54 E13G22    29.30F
PETERSBURG*    LGT RAIN  52  50  93 E10G20    29.28S
HANOVER        LGT RAIN  51  48  89 NE14G24   29.33F FOG
TAPPAHANNOCK*  LGT RAIN  51  51 100 NE17G29   29.38F
QUINTON*       CLOUDY    51  51 100 NE18G24   29.32F FOG
CHARLOTTSVILLE HVY RAIN  49  47  93 NE14G29   29.38F FOG
GORDONSVILLE*  CLOUDY    48  47  99 NE12G22   29.40F FOG
ORANGE*        DRIZZLE   48  48 100 N12G21    29.42F
LOUISA*        RAIN      52  50  93 NE16G24   29.36F
BUMPASS*       CLOUDY    48  48 100 NE14G26   29.35F
FARMVILLE*     LGT RAIN  50  50 100 NE18G26   29.25F
CREWE*         CLOUDY    50  50 100 NE8       29.25F
FORT PICKETT*  CLOUDY    51  48  88 E14G22    29.26S
CHASE CITY*    CLOUDY    51  49  94 N5        29.24R VSB 3/4
CLARKSVILLE*   CLOUDY    50  50 100 E7        29.23S
SOUTH HILL*    CLOUDY    52  52 100 E3        29.29S
LAWRENCEVILLE* CLOUDY    52  51  97 E9        29.24F
EMPORIA*       DRIZZLE   52  52 100 E10G18    29.27F
$$

VAZ088>098-231300-
SOUTHEAST VIRGINIA

CITY           SKY/WX    TMP DP  RH WIND       PRES   REMARKS
NORFOLK        LGT RAIN  56  55  97 E16       29.31F
VIRGINIA BEACH LGT RAIN  54  53  97 E15G23    29.31F FOG
NORFOLK NAVAL  LGT RAIN  53  52  96 E16       29.32F VSB 1
WEST POINT*    CLOUDY    52  52  99 NE26G33   29.33F
SALUDA*        CLOUDY    50  50 100 E16G33    29.36F
NEWPORT NEWS   LGT RAIN  51  51 100 E15G25    29.32F VSB 3/4
LANGLEY AFB    LGT RAIN  50  50 100 E15       29.31S FOG
FORT EUSTIS    LGT RAIN  54  52  94 E18G28    29.26F
WILLIAMSBURG*  CLOUDY    54  54 100 E13G24    29.31F
HR EXEC AP*    CLOUDY    55  52  88 E14       29.27F
FRANKLIN*      CLOUDY    52  52  98 E9G16     29.27F
US460-WAKEFLD  CLOUDY    53  53 100 E8G18     29.28F
$$

VAZ020-022-025-037-045-231300-
WEST CENTRAL AND SOUTHWEST VIRGINIA

CITY           SKY/WX    TMP DP  RH WIND       PRES   REMARKS
STAUNTON*      DRIZZLE   45  44  95 N16       29.39F
WAYNESBORO*    CLOUDY    46  44  94 N13G20    29.37F
HOT SPRINGS VA HVY RAIN  36  36 100 E21G32    29.29R VSB 1/2 WCI  24
LYNCHBURG      RAIN      48  46  93 N23G33    29.26F FOG
DANVILLE       LGT RAIN  50  50 100 E8        29.23S
SOUTH BOSTON*  CLOUDY    51  49  95 NE6       29.23F
MARTINSVILLE   HVY RAIN  47  46  97 N3        29.25F
ROANOKE        RAIN      49  47  93 NE15G25   29.26F
BLACKSBURG     RAIN      47  46  97 E12G17    29.27R
DUBLIN*        MIX PCPN  47  47 100 CALM      29.26F
MARION*        LGT RAIN  47  46  96 CALM      29.26R
HILLSVILLE*    RAIN      44  44 100 E5        29.22R
RICHLANDS*     CLOUDY    46  46  99 E8        29.23R
WISE*          RAIN      46  46 100 NE12      29.25R
ABINGDON*      RAIN      49  47  92 E14G23    29.21R
$$

MDZ021>025-VAZ099-100-231300-
SOUTHERN MARYLAND AND THE DELMARVA PENINSULA

CITY           SKY/WX    TMP DP  RH WIND       PRES   REMARKS
PATUXENT RIVER DRIZZLE   49  48  97 E22       29.44F
BAY BRIDGE APT CLOUDY    46  45  93 E18G30    29.53R FOG
LEONARDTOWN    CLOUDY    48  46  93 E16G24    29.47R
DOVER          CLOUDY    45  45 100 NE16G25   29.58F
GEORGETOWN     LGT RAIN  47  32  56 E29G39    29.55S
EASTON         CLOUDY    48  45  87 E25G37    29.55F
CAMBRIDGE      CLOUDY    46  45  93 E18G30    29.49R
SALISBURY      LGT RAIN  51  49  92 E24G33    29.48F FOG
OCEAN CITY     CLOUDY    50  48  93 E22G30    29.49F
WALLOPS ISLAND CLOUDY    51  51 100 E28G36    29.45F
ACCOMACK*      LGT RAIN  53  52  96 E24G39    29.39F
$$

NCZ012>017-030>032-231300-
NORTH CENTRAL AND EASTERN NORTH CAROLINA

CITY           SKY/WX    TMP DP  RH WIND       PRES   REMARKS
ROANOKE RAPIDS LGT RAIN  52  52 100 SE8       29.26R
RALEIGH        CLOUDY    54  53  97 SE7       29.22R
ELIZABETH CITY CLOUDY    58  57  97 E14       29.28F
AHOSKIE*       LGT RAIN  53  52  97 E3        29.26S
EDENTON*       CLOUDY    57  55  95 E12       29.26F
CURRITUCK*     DRIZZLE   57  57 100 E8        29.30F
KILL DEVIL HLS NOT AVBL
MANTEO         LGT RAIN  58  58 100 SW3       29.30S
CAPE HATTERAS  LGT RAIN  63  60  90 W7        29.27F FOG
TARBORO*       NOT AVBL
GOLDSBORO      CLOUDY    57  57 100 S3        29.22S
WASHINGTON     CLOUDY    54  53  98 CALM        N/A
GREENVILLE     CLOUDY    54  54 100 SE6       29.31R
NEW BERN       MOCLDY    56  55  97 S6        29.27S
WILMINGTON     CLEAR     54  50  86 SW10      29.31R
$$

VAZ048-231300-
ELSEWHERE

CITY           SKY/WX    TMP DP  RH WIND       PRES   REMARKS
HARRISBURG PA  LGT RAIN  43  41  93 E15G23    29.64F
BALTIMORE      DRIZZLE   44  44 100 NE28G40   29.55F FOG
ANNAPOLIS      CLOUDY    47  50 100 NE16G24   29.53F HAZE
ANDREWS AFB    LGT RAIN  46  45  93 NE24G30   29.48S FOG
PHILADELPHIA   DRIZZLE   43  39  86 NE22G32   29.70R
HENDERSON NC   CLOUDY    49  48  97 E8        29.23F
GREENSBORO     LGT RAIN  50  50 100 E3        29.20S FOG
ROCKY MOUNT    CLOUDY    53  53 100 VRB6      29.24F
$$

VAZ100-231300-
MARINE

STATION/POSITION TIME  TEMP    WIND        PRES    WAVE   SWELL
                       AIR SEA DIR/SP/G            HT/PER HT/PER
                 (UTC) (F)     (DEG/KT/KT) (MB)    (FT/S) (FT/S)
CAPE MAY NJ      1148   45 44   70/ 14/ 28 1001.5F
LEWES DE         1142   45 43   70/ 32/ 37 1000.4F
OCEAN-CITY-INLET 1142   50 43   80/ 16/ 25  999.3F
WACHAPREAGUE VA  1148   51 49   60/ 25/ 30  994.9F
THOMAS POINT MD  1200   47 40   70/ 29/ 33   N/A
GOOSES REEF MD   1150   47     100/ 25/ 31  999.1F
COVE POINT MD    1148   48     100/ 27/ 38  997.7F
SOLOMONS ISLAND  1142   49 42   60/ 20/ 26   N/A
BISHOPS HEAD MD  1148   50 45   70/ 22/ 28  996.9F
PINEY POINT MD   1148           90/ 19/ 25   N/A
POTOMAC MD       1150   47      80/ 19/ 25  994.8F
CAMBRIDGE MD     1148   47 43   60/ 27/ 32  997.4F
LEWISETTA VA     1148   48 45   80/ 17/ 23  995.7R
RAPPAHANNOCK LGT 1148           60/ 27/ 30  994.3F
STINGRAY PT      1150   48      90/ 21/ 25  994.1F
YORK RVR RNG VA  1148   48      80/ 19/ 20  992.6F
YORKTOWN VA      1148   49 44   80/ 13/ 18  993.4F
JAMESTOWN VA     1150   51     100/ 12/ 17   N/A
DOMINION TERM VA 1148   49      60/ 10/ 14  992.5F
CHES BAY BRIDGE  1148   50 45   70/ 16/ 18  992.2F
CAPE HENRY VA    1148   52      70/ 14/ 17   N/A
WILLOUBY STN VA  1148   48     100/ 16/ 18  993.2F
S CRANEY ISL VA  1148   50     100/ 11/ 14  992.1F
CAPE HENRY BUOY  1142      48                N/A     4/ 7   2/13
OFFSHORE WE BUOY 1151      48                N/A     5/ 7   2/11
64NM E OF VA BCH 1150   62 56   80/ 16/ 19  993.2F   5/14   3/14
DUCK PIER NC     1148   54 46  100/ 24/ 24  991.7F
44100 DUCK FRF   1105      49                N/A     4/13   2/13
44056 DUCK FRF   1130      46                N/A     3/11   2/11
OREGON INLET NC  1142   54 50   60/ 10/ 13  991.3F
HATTERAS NC      1148   62 55  220/  6/  9  990.7F
DIAMOND SHLS NC  1150   72 72  220/ 23/ 31  990.5F   9/ 7   3/12
CAPE LOOKOUT NC  1200   60     220/ 11/ 15  991.4R
$$



USA.gov is the U.S. government's official web portal to all federal, state and local government web resources and services.